Warroad, MN

11:06 PM CDT on March 29, 2017 (GMT -0500)
Warroad International-Carlson

Weather History for KRRT - January, 2014

Change the Weather History Date:

Sunday, January 12, 2014

  Actual Average Record
Temperature  
Mean Temperature 29 °F -  
Max Temperature 37 °F 11 °F 44 °F (1986)
Min Temperature 21 °F -9 °F -35 °F (1971)
Degree Days  
Heating Degree Days 36    
Moisture  
Dew Point 25 °F    
Average Humidity 81    
Maximum Humidity 87    
Minimum Humidity 74    
Precipitation  
Precipitation 0.00 in - - ()
Sea Level Pressure  
Sea Level Pressure 29.26 in    
Wind  
Wind Speed 10 mph (SW)    
Max Wind Speed 17 mph    
Max Gust Speed 23 mph    
Visibility 10 miles    
Events      
Averages and records for this station are not official NWS values.
T = Trace of Precipitation, MM = Missing Value Source: NWS Daily Summary

Daily Weather History Graph

Daily Weather History Graph

Search for Another Location

Airport or City:

Trip Planner

Search our weather history database for the weather conditions in past years. The results will help you decide how hot, cold, wet, or windy it might be!

Date:

Astronomy

Jan. 12, 2014 Rise Set
Actual Time 8:11 AM CST 4:48 PM CST
Civil Twilight 7:35 AM CST 5:24 PM CST
Nautical Twilight 6:55 AM CST 6:04 PM CST
Astronomical Twilight 6:17 AM CST 6:42 PM CST
Moon 2:18 PM CST (1/12) 5:08 AM CST (1/12)
Length of Visible Light 9h 48m
Length of Day
8h 36m
Waxing Gibbous, 90% of the Moon is Illuminated
Jan 12
Waxing Gibbous
Jan 15
Full
Jan 23
Last Quarter
Jan 30
New
Feb 6
First Quarter

Hourly Weather History & Observations

Time (CST) Temp. Windchill Dew Point Humidity Pressure Visibility Wind Dir Wind Speed Gust Speed Precip Events Conditions
12:14 AM 21.2 °F 11.7 °F 17.6 °F 86% 29.38 in 7.0 mi SE 8.1 mph - N/A   Mostly Cloudy
12:34 AM 21.2 °F 13.6 °F 17.6 °F 86% 29.38 in 7.0 mi SSE 5.8 mph - N/A   Overcast
12:54 AM 21.2 °F 10.9 °F 17.6 °F 86% 29.37 in 10.0 mi SSE 9.2 mph - N/A   Overcast
1:14 AM 21.2 °F 11.7 °F 17.6 °F 86% 29.36 in 10.0 mi South 8.1 mph - N/A   Overcast
1:34 AM 23.0 °F 12.4 °F 19.4 °F 86% 29.34 in 10.0 mi SSE 10.4 mph - N/A   Mostly Cloudy
1:54 AM 23.0 °F 13.1 °F 19.4 °F 86% 29.32 in 10.0 mi SSE 9.2 mph - N/A   Overcast
2:14 AM 24.8 °F 14.0 °F 19.4 °F 80% 29.30 in 10.0 mi SSE 11.5 mph - N/A   Mostly Cloudy
2:34 AM 24.8 °F 12.9 °F 21.2 °F 86% 29.28 in 10.0 mi SSE 13.8 mph - N/A   Scattered Clouds
2:54 AM 24.8 °F 11.9 °F 21.2 °F 86% 29.26 in 10.0 mi SSE 16.1 mph - N/A   Mostly Cloudy
3:14 AM 24.8 °F 12.9 °F 21.2 °F 86% 29.23 in 10.0 mi SSE 13.8 mph - N/A   Mostly Cloudy
3:33 AM 24.8 °F 11.5 °F 21.2 °F 86% 29.22 in 10.0 mi SSE 17.3 mph - N/A   Scattered Clouds
3:54 AM 24.8 °F 13.4 °F 21.2 °F 86% 29.20 in 10.0 mi SSE 12.7 mph - N/A   Scattered Clouds
4:14 AM 24.8 °F 15.3 °F 21.2 °F 86% 29.19 in 10.0 mi South 9.2 mph 16.1 mph N/A   Scattered Clouds
4:34 AM 26.6 °F 16.8 °F 21.2 °F 80% 29.18 in 10.0 mi South 10.4 mph - N/A   Mostly Cloudy
4:54 AM 26.6 °F 16.8 °F 21.2 °F 80% 29.17 in 10.0 mi South 10.4 mph - N/A   Scattered Clouds
5:14 AM 26.6 °F 16.8 °F 21.2 °F 80% 29.16 in 10.0 mi South 10.4 mph 16.1 mph N/A   Scattered Clouds
5:34 AM 26.6 °F 15.7 °F 21.2 °F 80% 29.15 in 10.0 mi South 12.7 mph - N/A   Mostly Cloudy
5:54 AM 28.4 °F 20.4 °F 21.2 °F 74% 29.16 in 10.0 mi South 8.1 mph - N/A   Overcast
6:14 AM 28.4 °F 20.4 °F 23.0 °F 80% 29.16 in 10.0 mi South 8.1 mph - N/A   Overcast
6:34 AM 30.2 °F 23.4 °F 23.0 °F 75% 29.15 in 10.0 mi South 6.9 mph - N/A   Overcast
6:54 AM 30.2 °F 22.6 °F 24.8 °F 80% 29.15 in 10.0 mi SSW 8.1 mph - N/A   Overcast
7:14 AM 30.2 °F 21.3 °F 26.6 °F 86% 29.14 in 10.0 mi SSW 10.4 mph - N/A   Overcast
7:34 AM 32.0 °F 23.6 °F 26.6 °F 80% 29.13 in 10.0 mi SSW 10.4 mph 16.1 mph N/A   Scattered Clouds
7:54 AM 32.0 °F 24.2 °F 26.6 °F 80% 29.13 in 10.0 mi SSW 9.2 mph - N/A   Scattered Clouds
8:14 AM 32.0 °F 24.2 °F 28.4 °F 87% 29.13 in 10.0 mi SSW 9.2 mph - N/A   Scattered Clouds
8:34 AM 32.0 °F 23.0 °F 28.4 °F 87% 29.13 in 10.0 mi SSW 11.5 mph 16.1 mph N/A   Clear
8:54 AM 32.0 °F 23.0 °F 28.4 °F 87% 29.13 in 10.0 mi SSW 11.5 mph 16.1 mph N/A   Clear
9:14 AM 33.8 °F 25.8 °F 28.4 °F 81% 29.13 in 10.0 mi SW 10.4 mph - N/A   Clear
9:34 AM 33.8 °F 25.3 °F 28.4 °F 81% 29.13 in 10.0 mi SW 11.5 mph 16.1 mph N/A   Clear
9:54 AM 33.8 °F 24.3 °F 28.4 °F 81% 29.13 in 10.0 mi SSW 13.8 mph 17.3 mph N/A   Clear
10:14 AM 35.6 °F 26.6 °F 30.2 °F 81% 29.14 in 10.0 mi SW 13.8 mph 18.4 mph N/A   Clear
10:34 AM 35.6 °F 28.0 °F 28.4 °F 75% 29.16 in 10.0 mi SSW 10.4 mph - N/A   Clear
10:54 AM 35.6 °F 27.1 °F 30.2 °F 81% 29.17 in 10.0 mi SW 12.7 mph - N/A   Clear
11:14 AM 35.6 °F 28.6 °F 30.2 °F 81% 29.16 in 10.0 mi WSW 9.2 mph - N/A   Clear
11:34 AM 37.4 °F 29.3 °F 30.2 °F 75% 29.16 in 10.0 mi WSW 12.7 mph 17.3 mph N/A   Clear
11:53 AM 37.4 °F 29.3 °F 30.2 °F 75% 29.15 in 10.0 mi WSW 12.7 mph 19.6 mph N/A   Clear
12:14 PM 35.6 °F 27.5 °F 30.2 °F 81% 29.16 in 10.0 mi West 11.5 mph 18.4 mph N/A   Scattered Clouds
12:34 PM 35.6 °F 28.0 °F 30.2 °F 81% 29.17 in 10.0 mi West 10.4 mph - N/A   Mostly Cloudy
12:54 PM 35.6 °F 28.6 °F 30.2 °F 81% 29.18 in 10.0 mi WSW 9.2 mph - N/A   Overcast
1:14 PM 37.4 °F 30.3 °F 30.2 °F 75% 29.19 in 10.0 mi WSW 10.4 mph - N/A   Overcast
1:34 PM 37.4 °F 29.8 °F 30.2 °F 75% 29.20 in 10.0 mi West 11.5 mph - N/A   Overcast
1:54 PM 35.6 °F 28.6 °F 30.2 °F 81% 29.20 in 10.0 mi West 9.2 mph - N/A   Overcast
2:14 PM 35.6 °F 28.0 °F 30.2 °F 81% 29.21 in 10.0 mi WSW 10.4 mph - N/A   Overcast
2:34 PM 35.6 °F 29.2 °F 30.2 °F 81% 29.22 in 10.0 mi WSW 8.1 mph - N/A   Overcast
2:54 PM 35.6 °F 28.6 °F 30.2 °F 81% 29.23 in 10.0 mi WSW 9.2 mph - N/A   Overcast
3:13 PM 37.4 °F 30.8 °F 30.2 °F 75% 29.24 in 10.0 mi West 9.2 mph - N/A   Overcast
3:34 PM 35.6 °F 29.9 °F 28.4 °F 75% 29.24 in 10.0 mi WSW 6.9 mph - N/A   Scattered Clouds
3:54 PM 35.6 °F 29.2 °F 28.4 °F 75% 29.27 in 10.0 mi SW 8.1 mph - N/A   Mostly Cloudy
4:14 PM 33.8 °F 26.4 °F 28.4 °F 81% 29.28 in 10.0 mi WSW 9.2 mph - N/A   Overcast
4:34 PM 33.8 °F 27.0 °F 28.4 °F 81% 29.29 in 10.0 mi WSW 8.1 mph - N/A   Mostly Cloudy
4:54 PM 32.0 °F 24.8 °F 26.6 °F 80% 29.30 in 10.0 mi WSW 8.1 mph - N/A   Overcast
5:14 PM 30.2 °F 22.6 °F 26.6 °F 86% 29.30 in 10.0 mi WSW 8.1 mph - N/A   Mostly Cloudy
5:34 PM 30.2 °F 22.6 °F 26.6 °F 86% 29.31 in 10.0 mi WSW 8.1 mph - N/A   Overcast
5:54 PM 30.2 °F 21.9 °F 26.6 °F 86% 29.33 in 10.0 mi West 9.2 mph - N/A   Overcast
6:14 PM 30.2 °F 22.6 °F 26.6 °F 86% 29.34 in 10.0 mi West 8.1 mph - N/A   Overcast
6:34 PM 30.2 °F 21.3 °F 26.6 °F 86% 29.34 in 10.0 mi West 10.4 mph - N/A   Overcast
6:54 PM 30.2 °F 21.9 °F 26.6 °F 86% 29.34 in 10.0 mi West 9.2 mph - N/A   Overcast
7:14 PM 30.2 °F 21.3 °F 24.8 °F 80% 29.36 in 10.0 mi West 10.4 mph - N/A   Overcast
7:34 PM 30.2 °F 21.3 °F 24.8 °F 80% 29.37 in 10.0 mi West 10.4 mph - N/A   Overcast
7:54 PM 30.2 °F 20.2 °F 24.8 °F 80% 29.38 in 10.0 mi WNW 12.7 mph - N/A   Overcast
8:13 PM 28.4 °F 18.5 °F 24.8 °F 86% 29.40 in 10.0 mi WNW 11.5 mph 17.3 mph N/A   Overcast
8:34 PM 28.4 °F 17.5 °F 23.0 °F 80% 29.41 in 10.0 mi WNW 13.8 mph 19.6 mph N/A   Overcast
8:54 PM 28.4 °F 17.0 °F 23.0 °F 80% 29.41 in 10.0 mi WNW 15.0 mph 21.9 mph N/A   Overcast
9:14 PM 28.4 °F 18.0 °F 21.2 °F 74% 29.41 in 10.0 mi WNW 12.7 mph 23.0 mph N/A   Overcast
9:34 PM 26.6 °F 17.5 °F 21.2 °F 80% 29.42 in 10.0 mi WNW 9.2 mph - N/A   Overcast
9:54 PM 26.6 °F 16.2 °F 21.2 °F 80% 29.42 in 10.0 mi WNW 11.5 mph - N/A   Overcast
10:14 PM 26.6 °F 14.7 °F 21.2 °F 80% 29.43 in 10.0 mi WNW 15.0 mph 23.0 mph N/A   Overcast
10:34 PM 26.6 °F 15.7 °F 19.4 °F 74% 29.44 in 10.0 mi WNW 12.7 mph 18.4 mph N/A   Overcast
10:54 PM 26.6 °F 16.2 °F 19.4 °F 74% 29.45 in 10.0 mi West 11.5 mph 17.3 mph N/A   Overcast
11:14 PM 24.8 °F 15.3 °F 19.4 °F 80% 29.46 in 10.0 mi West 9.2 mph - N/A   Overcast
11:34 PM 24.8 °F 12.9 °F 17.6 °F 74% 29.47 in 10.0 mi WNW 13.8 mph - N/A   Overcast
11:54 PM 24.8 °F 15.3 °F 17.6 °F 74% 29.47 in 10.0 mi WNW 9.2 mph - N/A   Mostly Cloudy